Location: Oshawa
(43.9000°N, 78.8670°W)
Time: 12:40:26
(UTC-04:00)

Thor Agena Rocket - Visible Passes

Search period start: 30 March 2017 00:00
Search period end: 09 April 2017 00:00
Orbit: 759 x 809 km, 99.1° (Epoch: 28 March)

Date Brightness Start Highest point End Pass type
(mag) Time Alt. Az. Time Alt. Az. Time Alt. Az.
30 Mar 6.1 04:52:23 10° ESE 04:56:02 21° ENE 04:59:41 10° NNE visible
30 Mar 3.6 06:30:00 10° S 06:34:56 55° W 06:39:54 10° NNW visible
30 Mar 6.0 20:19:56 10° N 20:24:10 27° WNW 20:28:26 10° WSW visible
31 Mar 6.9 04:23:44 10° ENE 04:25:13 11° NE 04:26:44 10° NE visible
31 Mar 3.7 05:58:38 10° SSE 06:03:40 77° ENE 06:08:43 10° NNW visible
01 Apr 4.9 05:27:51 10° SE 05:32:32 40° ENE 05:37:15 10° N visible
01 Apr 6.7 20:58:01 10° NNW 21:00:34 14° WNW 21:03:07 10° W visible
02 Apr 6.0 04:57:44 10° ESE 05:01:34 22° ENE 05:05:25 10° NNE visible
02 Apr 6.2 20:25:37 10° N 20:29:43 25° WNW 20:33:52 10° WSW visible
03 Apr 6.8 04:28:42 10° E 04:30:45 12° NE 04:32:46 10° NNE visible
03 Apr 3.6 06:04:12 10° SSE 06:09:14 85° ENE 06:14:20 10° NNW visible
04 Apr 4.8 05:33:20 10° SE 05:38:05 44° ENE 05:42:54 10° N visible
04 Apr 6.9 21:03:55 10° NNW 21:06:05 13° NW 21:08:18 10° W visible
05 Apr 5.9 05:03:05 10° ESE 05:07:06 24° ENE 05:11:07 10° N visible
05 Apr 6.4 20:31:18 10° NNW 20:35:16 23° WNW 20:39:15 10° WSW visible
06 Apr 6.7 04:33:48 10° E 04:36:15 14° ENE 04:38:42 10° NNE visible
06 Apr 3.5 06:09:46 10° SSE 06:14:49 87° WSW 06:19:55 10° NNW visible
07 Apr 4.6 05:38:49 10° SE 05:43:39 49° ENE 05:48:32 10° N visible
07 Apr 7.0 21:09:52 10° NW 21:11:37 12° NW 21:13:21 10° WNW visible
08 Apr 5.8 05:08:28 10° ESE 05:12:37 27° ENE 05:16:50 10° N visible
08 Apr 6.5 20:37:01 10° NNW 20:40:49 21° WNW 20:44:38 10° WSW visible
